This demonstration page uses our WeatherBlox Daily Observations layout. Learn more.

Left ArrowRight Arrow

39.92423, -83.80882

Hourly Observations for September 23, 2015

Temp ( °F °C ) Dew Point ( °F °C ) Humidity (%) Winds ( mph kmh ) Pressure ( in mb ) Visibility ( mi km ) Precip ( " mm )
12:56 am 00:56 Clear 55 12.7 52 11.1 90 90 NE 3 6 30.23 1024 10 16 N/A
1:56 am 01:56 Clear 55 12.7 54 12.2 97 97 E 3 6 30.23 1024 10 16 N/A
2:56 am 02:56 Clear 52 11.1 51 10.5 96 96 ENE 3 6 30.23 1024 10 16 N/A
3:56 am 03:56 Clear 52 11.1 52 11.1 100 100 ENE 3 6 30.22 1023 10 16 N/A
4:56 am 04:56 Clear 52 11.1 51 10.5 96 96 N N/A 30.23 1024 10 16 N/A
5:56 am 05:56 Clear 51 10.5 51 10.5 100 100 NNE 3 6 30.24 1024 10 16 N/A
6:56 am 06:56 Clear 50 10 49 9.4 96 96 ENE 3 6 30.25 1025 10 16 N/A
7:56 am 07:56 Sunny 50 10 50 10 100 100 NE 3 6 30.28 1026 10 16 N/A
8:56 am 08:56 Sunny 59 15 56 13.3 90 90 ENE 5 7 30.29 1026 10 16 N/A
9:56 am 09:56 Sunny 67 19.4 59 15 76 76 E 5 7 30.29 1026 10 16 N/A
10:56 am 10:56 Sunny 73 22.7 60 15.5 64 64 N N/A 30.29 1026 10 16 N/A
11:56 am 11:56 Sunny 78 25.5 56 13.3 47 47 ENE 7 11 30.27 1025 10 16 N/A
12:56 pm 12:56 Sunny 80 26.6 54 12.2 41 41 NE 5 7 30.26 1025 10 16 N/A
1:56 pm 13:56 Sunny 80 26.6 52 11.1 38 38 E 9 15 30.24 1024 10 16 N/A
3:56 pm 15:56 Sunny 83 28.3 53 11.6 35 35 NNE 6 9 30.21 1023 10 16 N/A
4:56 pm 16:56 Sunny 83 28.3 53 11.6 35 35 NNE 7 11 30.19 1023 10 16 N/A
5:56 pm 17:56 Sunny 81 27.2 52 11.1 37 37 NE 8 13 30.19 1023 10 16 N/A
6:56 pm 18:56 Sunny 76 24.4 53 11.6 45 45 ENE 7 11 30.20 1023 10 16 N/A
7:56 pm 19:56 Clear 66 18.8 51 10.5 59 59 ENE 5 7 30.22 1023 10 16 N/A
8:56 pm 20:56 Clear 62 16.6 51 10.5 67 67 ENE 3 6 30.22 1024 10 16 N/A
9:56 pm 21:56 Clear 60 15.5 51 10.5 72 72 E 5 7 30.22 1024 10 16 N/A
10:56 pm 22:56 Clear 59 15 52 11.1 78 78 ENE 5 7 30.22 1024 10 16 N/A
11:56 pm 23:56 Clear 60 15.5 53 11.6 78 78 NE 7 11 30.23 1024 10 16 N/A

Powered by AerisWeather